Location: Helds Island Access
(38.5526°N, 91.5997°W)
Time: 08:24:44
(UTC-06:00)

Daily predictions for brighter satellites

Satellite Brightness Start Highest point End
(mag) Time Altitude Azimuth Time Altitude Azimuth Time Altitude Azimuth
ATLAS 2AS CENTAUR R/B 3.0 16:58:52 10° NNW 17:06:57 69° NE 17:14:26 10° SE
Cosmos 494 Rocket 4.3 17:02:37 10° N 17:07:41 47° ENE 17:12:44 10° SE
Cosmos 1484 Rocket 4.4 17:09:38 10° E 17:11:37 14° ENE 17:13:37 10° NE
CZ-2C R/B 2.7 17:07:27 10° SE 17:12:12 47° ENE 17:17:07 10° N
USA 32 4.0 17:07:04 10° S 17:12:14 67° E 17:17:25 10° N
Meteor 2-19 Rocket 4.4 17:06:36 10° N 17:12:37 65° E 17:18:36 10° SSE
CRYOSAT 2 4.4 17:07:51 10° NNE 17:12:43 61° E 17:17:32 10° S
MOS 1 4.4 17:07:41 10° SE 17:13:09 53° ENE 17:18:38 10° N
EP 2 4.4 17:13:33 10° SW 17:16:09 75° WNW 17:18:51 10° NNE
Tiangong 1 1.4 17:13:47 10° SW 17:16:46 55° SSE 17:19:44 10° ENE
SJ-12 4.1 17:13:26 10° SSE 17:17:24 52° ENE 17:21:25 10° N
Cosmos 1455 Rocket 3.1 17:18:44 10° N 17:23:06 58° E 17:27:27 10° SSE
IDEFIX/ARIANE 42P 2.5 17:23:26 10° SSE 17:28:34 66° ENE 17:33:43 10° N
Delta 2 Rocket 4.2 17:26:05 10° SW 17:29:27 36° SSE 17:33:11 10° E
SL-8 Rocket 4.1 17:24:08 10° N 17:30:19 82° W 17:36:27 10° S
AQUARIUS 4.1 17:27:28 10° SSE 17:31:56 71° ENE 17:36:25 10° N
Cosmos 1844 Rocket 4.0 17:33:18 10° SW 17:38:26 37° WNW 17:43:40 10° N
Thor Agena Rocket 3.7 17:35:03 10° NNE 17:40:17 85° WNW 17:45:33 10° SSW
Cosmos 1812 2.9 17:36:50 10° SSW 17:40:40 73° W 17:44:32 10° N
Cosmos 2366 rocket 4.1 17:36:24 10° N 17:42:47 89° WSW 17:49:04 10° S
SL-27 R/B 4.4 17:41:54 10° NW 17:45:15 34° WSW 17:48:33 10° SSW
Cosmos 2251 Rocket 4.1 17:42:36 10° NNW 17:47:54 64° WSW 17:53:07 10° S
CORIOLIS 4.2 17:44:32 10° SSE 17:49:57 88° WSW 17:55:23 10° NNW
Cosmos 2218 Rocket 4.4 17:44:04 10° NNW 17:50:18 68° W 17:56:25 10° S
NOSS 2-1 (D) 3.9 17:47:41 10° S 17:51:14 38° ESE 17:53:30 20° ENE
NOSS 2-1 (C) 3.9 17:48:22 10° S 17:51:55 38° ESE 17:54:09 20° ENE
Okean 1 3.5 17:49:21 10° SSW 17:53:23 75° W 17:57:27 10° N
Abrixas 3.8 17:51:58 10° NW 17:54:26 23° NNE 17:54:52 22° NE
Timation 1 Rocket 4.4 17:53:27 10° S 17:59:15 56° ESE 18:04:20 14° NE
Cosmos 1346 Rocket 2.8 18:00:18 10° S 18:04:12 82° W 18:08:06 10° N
Cosmos 2297 3.6 17:59:29 10° SSW 18:05:07 77° ESE 18:10:21 12° NNE
ISS -0.7 18:06:14 10° NNW 18:06:52 10° NNW 18:07:29 10° N
BREEZE M DEB (TANK) 3.0 17:56:57 10° SW 18:06:53 90° SSW 18:08:45 28° NE
Meteor 2-21 4.4 18:02:35 10° N 18:08:47 81° E 18:14:55 10° S
Timation 2 Rocket 4.1 18:03:23 10° NNW 18:10:12 67° ENE 18:17:03 10° SE
NOSS 2-1 (E) 3.4 18:06:43 10° SSW 18:10:29 57° ESE 18:12:13 31° NE
COSMO-SKYMED 1 2.5 18:10:57 10° NNE 18:15:19 85° ESE 18:19:39 10° SSW
NOAA 12 4.4 18:10:33 10° SE 18:15:29 42° ENE 18:20:25 10° N
Cosmos 1821 Rocket 4.0 18:11:01 10° N 18:16:56 51° E 18:22:50 10° SSE
Cosmos 2278 Rocket 3.4 18:11:50 10° SW 18:17:07 40° WNW 18:22:26 10° N
Intercosmos 25 2.7 18:18:26 10° N 18:21:37 78° E 18:25:03 10° S
CZ-3B DEB 3.5 18:21:13 10° W 18:25:22 36° NNW 18:31:38 18° NE
USA 234 4.2 18:22:16 15° NNE 18:27:09 39° NNW 18:33:05 10° W
Cosmos 1605 Rocket 4.5 18:21:42 10° N 18:27:24 34° ENE 18:32:57 10° SE
Genesis I 4.0 18:23:52 10° NW 18:27:41 52° WSW 18:31:27 10° SSE
Meteor 2-14 Rocket 4.4 18:22:37 10° N 18:28:48 85° E 18:34:57 10° S
METEOR-M 4.2 18:26:03 10° SE 18:31:10 50° ENE 18:36:19 10° N
Cosmos 2056 Rocket 3.7 18:26:07 10° S 18:31:18 51° ESE 18:32:41 40° ENE
Cosmos 1025 Rocket 2.9 18:30:34 10° S 18:34:55 74° E 18:36:25 40° NNE
Cosmos 921 Rocket 3.5 18:33:31 10° SSW 18:37:41 56° WNW 18:40:22 21° N
Nadezhda 3 Rocket 4.5 18:34:01 10° SSW 18:40:07 60° W 18:46:20 10° N
Cosmos 1833 Rocket 2.6 18:35:32 10° NNW 18:41:12 85° ENE 18:46:49 10° SSE
Cosmos 1743 3.1 18:38:17 10° NNW 18:42:08 62° W 18:45:55 10° S
Meteor 1-19 Rocket 4.4 18:36:24 10° SSW 18:42:10 74° W 18:48:03 10° N
NOSS 3-4 (A) 3.9 18:35:58 10° NNW 18:42:48 51° NE 18:45:08 38° E
NOSS 3-4 (C) 3.9 18:36:04 10° NNW 18:42:54 51° NE 18:45:08 39° E
Cosmos 2082 Rocket 2.3 18:38:23 10° NNW 18:44:03 77° WSW 18:49:44 10° SSE
Cosmos 1624 Rocket 3.8 18:39:31 10° S 18:44:41 74° ESE 18:46:00 50° NE
Cosmos 1484 Rocket 4.3 18:42:20 10° SSW 18:45:46 34° W 18:49:13 10° NNW
GEOS 3 Rocket 3.4 18:47:42 53° ESE 18:48:46 69° NE 18:53:51 10° NNW
Cosmos 1371 Rocket 4.1 18:44:23 10° SSW 18:49:45 81° WNW 18:52:09 34° NNE
Meteor 1-28 Rocket 3.8 18:50:54 46° NNW 18:51:38 56° WNW 18:55:20 10° SSW
Tiangong 1 3.2 18:50:08 10° W 18:51:36 23° WNW 18:51:36 23° WNW
Meteor 1-15 Rocket 4.2 18:49:04 10° N 18:54:56 66° E 19:00:41 10° SSE
Cosmos 1727 Rocket 4.2 18:55:28 10° SSE 19:00:29 50° SE 19:00:29 50° SE
Meteor 1-23 Rocket 4.4 19:03:04 10° SSW 19:08:46 70° W 19:11:35 31° N
Meteor 2-4 Rocket 4.5 19:13:00 10° SSW 19:18:10 47° WNW 19:21:04 24° NNW
Cosmos 2369 Rocket 4.1 19:17:11 10° S 19:18:34 18° S 19:18:34 18° S
ATLAS 3B CENTAUR R/B 4.1 19:56:51 10° W 20:08:34 34° SSW 20:08:44 34° SSW
